Date,TemperatureHighF,TemperatureAvgF,TemperatureLowF,DewpointHighF,DewpointAvgF,DewpointLowF,HumidityHigh,HumidityAvg,HumidityLow,PressureMaxIn,PressureMinIn,WindSpeedMaxMPH,WindSpeedAvgMPH,GustSpeedMaxMPH,PrecipitationSumIn
2013-3-1,64,45,28,28,24,21,98,51,21,0.00,40.00,5,1,11,0.00
2013-3-2,65,46,32,28,21,14,77,44,16,0.00,40.00,10,3,24,0.00
2013-3-3,46,40,32,40,32,28,100,77,51,0.00,40.00,9,2,21,0.05
2013-3-4,57,41,28,33,29,23,100,68,27,0.00,40.00,5,1,20,0.01
2013-3-5,54,43,31,26,23,15,80,47,28,0.00,40.00,12,5,36,0.00
2013-3-6,38,32,27,33,24,16,100,74,50,0.00,40.00,10,4,33,0.25
2013-3-7,40,31,26,31,26,20,100,82,53,0.00,40.00,1,0,7,0.29
2013-3-8,50,32,28,32,28,22,100,87,42,0.00,40.00,3,0,9,0.23
2013-3-9,49,35,25,29,20,7,100,63,18,0.00,40.00,5,1,15,0.01
2013-3-10,57,39,18,15,11,5,75,39,14,0.00,40.00,5,1,15,0.00
2013-3-11,65,42,25,19,14,8,60,37,13,0.00,40.00,5,1,13,0.00
2013-3-12,69,47,28,24,19,14,65,39,12,0.00,40.00,4,1,11,0.00
2013-3-13,73,51,32,32,23,-1,96,44,6,0.00,40.00,8,2,19,0.00
2013-3-14,70,50,40,28,20,12,49,32,11,0.00,40.00,13,4,27,0.00
2013-3-15,68,51,35,26,20,10,52,33,12,0.00,40.00,9,3,19,0.00
2013-3-16,63,46,30,21,16,3,66,35,9,0.00,40.00,14,4,30,0.00
2013-3-17,62,44,32,20,10,-6,49,30,6,0.00,40.00,10,3,20,0.00
2013-3-18,61,44,27,22,12,0,49,31,10,0.00,40.00,9,3,17,0.00
2013-3-19,59,48,38,32,24,17,64,40,27,0.00,40.00,11,5,24,0.00
2013-3-20,50,42,39,37,31,25,84,64,48,0.00,40.00,13,8,39,0.26
2013-3-21,56,44,31,26,20,10,66,41,18,0.00,40.00,10,4,29,0.17
2013-3-22,54,36,23,12,5,-13,60,33,6,0.00,40.00,5,1,13,0.00
2013-3-23,59,36,18,14,8,3,57,34,16,0.00,40.00,7,2,17,0.00
2013-3-24,64,44,25,24,18,13,80,42,15,0.00,40.00,9,2,23,0.00
2013-3-25,63,46,30,19,10,-6,41,27,6,0.00,40.00,9,3,22,0.00
2013-3-26,51,46,40,31,22,5,60,40,19,0.00,40.00,11,7,29,0.00
2013-3-27,58,43,32,30,26,23,78,55,26,0.00,40.00,10,5,25,0.00
2013-3-28,59,49,41,31,29,26,66,47,29,0.00,40.00,8,4,21,0.00
2013-3-29,68,48,30,32,30,28,100,58,23,0.00,40.00,5,1,13,0.00
2013-3-30,63,46,32,34,31,28,99,60,26,0.00,40.00,9,2,23,0.01
2013-3-31,51,43,33,40,32,23,100,68,35,0.00,40.00,9,4,22,0.13